Weather Service Report


571 
ASUS43 KLOT 270908
RWRIL 

ILLINOIS REGIONAL WEATHER ROUNDUP
NATIONAL WEATHER SERVICE CHICAGO/ROMEOVILLE IL
400 AM CDT MON APR 27 2015

NOTE: "FAIR" INDICATES FEW OR NO CLOUDS BELOW 12,000 FEET WITH NO
SIGNIFICANT WEATHER AND/OR OBSTRUCTIONS TO VISIBILITY.

* THESE STATIONS ARE NOT UNDER NWS QUALITY CONTROL. THEY ALSO MAY NOT
  REPORT WEATHER SUCH AS PRECIPITATION OR FOG.

ILZ001-002-007-009-015-016-024-271000-
NORTHWEST ILLINOIS
  
CITY           SKY/WX    TMP DP  RH WIND       PRES   REMARKS
MOLINE         CLEAR     34  32  92 CALM      30.07S                  
STERLING*      CLEAR     37  28  70 NE6       30.09S WCI  33          
SAVANNA*       CLEAR     38  30  72 NE5       30.09F WCI  34          
$$

ILZ003-004-008-010-011-017-018-271000-
NORTH CENTRAL ILLINOIS
  
CITY           SKY/WX    TMP DP  RH WIND       PRES   REMARKS
ROCKFORD       CLEAR     37  28  70 CALM      30.11F                  
FREEPORT*      CLEAR     36  28  72 CALM      30.11F                  
ROCHELLE*      CLEAR     36  30  80 N5        30.09S WCI  32          
DE KALB*       CLEAR     35  29  78 N6        30.08S WCI  30          
PERU*          CLEAR     38  30  71 N5        30.08R WCI  35          
$$

ILZ005-006-012>014-019>023-271000-
NORTHEAST ILLINOIS
  
CITY           SKY/WX    TMP DP  RH WIND       PRES   REMARKS
CHICAGO-OHARE  CLEAR     39  30  70 N7        30.05F WCI  34          
CHICAGO-MIDWAY CLEAR     43  32  65 N12       30.05F                  
AURORA         CLEAR     36  29  75 N7        30.06F WCI  30          
LANSING*       CLEAR     41  32  70 N12G17    30.04F                  
JOLIET*        CLEAR     41  33  71 N6        30.05F                  
WAUKEGAN       CLEAR     37  30  75 NW5       30.07R WCI  33          
DUPAGE AIRPORT CLEAR     37  30  75 N9        30.05F WCI  30          
KANKAKEE*      CLEAR     40  32  74 NW8       30.04S                  
WHEELING       CLEAR     38  30  73 N6        30.08S WCI  33          
MORRIS*        CLEAR     37  31  80 N5        30.03S WCI  33          
ROMEOVILLE*    CLEAR     39  31  73 N8        30.04F WCI  33          
NORTHERLY ISL    N/A     42  33  70 N14         N/A                   
$$

LMZ740>746-271000-
SOUTHERN LAKE MICHIGAN
  
STATION/POSITION SKY/WX   TEMP    WIND        PRES    VSBY  WAVE
                          AIR SEA DIR/SP/G                  HT/PER
                          (F)     (DEG/KT/KT) (MB)    (MI)  (FT/S)
HARRISON CRIB              41     350/ 20/ 24   N/A
BURNHAM HARBOR             42     360/ 17/ 19   N/A
CALUMET HARBOR             42     330/ 13/ 18   N/A
BURNS HARBOR               42     350/ 16/ 20 1017.3R
MICHIGAN CITY              40     340/ 20/ 22   N/A
MICHIGAN CITY 6N           40 45  360/ 16/ 21   N/A           4/ 5
$$

ILZ025>027-034>036-040-047-049-050-058-095>099-271000-
WEST-CENTRAL ILLINOIS
  
CITY           SKY/WX    TMP DP  RH WIND       PRES   REMARKS
QUINCY         CLEAR     41  34  76 E5        30.07R                  
GALESBURG*     CLEAR     35  32  90 CALM      30.06R                  
MACOMB*        CLEAR     35  33  93 W6        30.09R WCI  30          
JACKSONVILLE*  FAIR      38  35  87 CALM      30.07R                  
PITTSFIELD*    CLEAR     41  36  82 NW5       30.08R                  
$$

ILZ028>032-037-038-041>044-048-051>054-059>061-271000-
CENTRAL ILLINOIS
  
CITY           SKY/WX    TMP DP  RH WIND       PRES   REMARKS
PONTIAC        CLEAR     37  31  82 N7        30.05F WCI  31          
BLOOMINGTON    CLEAR     40  30  67 N8        30.04F                  
DECATUR        CLEAR     41  28  60 NW7       30.05R                  
PEORIA         CLEAR     38  34  85 N3        30.07R                  
LACON*         CLEAR     36  31  80 NE6       30.06S WCI  32          
LINCOLN*       CLEAR     40  33  76 NW3       30.06R                  
SPRINGFIELD    CLEAR     36  32  85 CALM      30.06R                  
TAYLORVILLE    CLEAR     34  32  93 N6        30.06R WCI  29          
$$

ILZ033-039-045-046-055>057-062-063-271000-
EAST-CENTRAL ILLINOIS
  
CITY           SKY/WX    TMP DP  RH WIND       PRES   REMARKS
CHAMPAIGN      CLEAR     41  29  62 N13       30.01F                  
DANVILLE*      CLEAR     36  30  80 NW9       29.97F WCI  29          
RANTOUL*       FAIR      42  31  65 N13       30.01S                  
MATTOON        CLEAR     37  29  72 NW5       30.02R WCI  33          
PARIS*         CLEAR     39  31  72 NW6       30.00S                  
$$

ILZ079-100>102-271000-
SOUTHWEST ILLINOIS
  
CITY           SKY/WX    TMP DP  RH WIND       PRES   REMARKS
ALTON          CLEAR     39  38  94 CALM      30.05R                  
BELLEVILLE     CLEAR     42  35  76 N5        30.02F                  
CAHOKIA*       CLEAR     40  37  89 CALM      30.04S                  
SPARTA*        FAIR      41  36  81 N3        30.03F                  
$$

ILZ064>066-069>071-074>076-080>082-084>086-088>090-092>094-271000-
SOUTH-CENTRAL ILLINOIS
  
CITY           SKY/WX    TMP DP  RH WIND       PRES   REMARKS
CARBONDALE     CLEAR     41  35  79 N5        30.01R                  
CAIRO*         PTCLDY    47  36  66 N8        29.98S                  
EFFINGHAM*     CLEAR     41  27  57 NW3       30.04R                  
MARION         CLEAR     41  34  75 N3        30.01S                  
MT. VERNON     CLEAR     36  27  69 N3        30.02S                  
CENTRALIA*     CLEAR     36  33  88 N3        30.03R                  
SALEM*         CLEAR     40  33  76 CALM      30.04R                  
METROPOLIS*    PTCLDY    45  37  75 N3        29.97S                  
$$

ILZ067-068-072-073-078-083-087-091-271000-
SOUTHEAST ILLINOIS
  
CITY           SKY/WX    TMP DP  RH WIND       PRES   REMARKS
LAWRENCEVILLE  CLEAR     40  31  70 W3        30.00R                  
FLORA*         CLEAR     39  32  75 NW3       30.03R                  
FAIRFIELD*     CLEAR     42  32  70 N6        30.01R                  
HARRISBURG*    CLEAR     42  34  72 N3        30.02R                  
ROBINSON*      CLEAR     39  32  77 NW7       30.02R WCI  34          
CARMI*         CLEAR     40  32  72 N7        29.99S                  
$$

ABBREVIATIONS USED IN REMARKS
   TC - TEMPERATURE IN CELSIUS
  WCI - WIND CHILL INDEX
   HX - HEAT INDEX
  VSB - VISIBILITY
$$


Return to Home page


Western Regional Climate Center, wrcc@dri.edu